Wind_Speed
25 25 26 28 29 28 27 26 26 26 26 26 25 23 21 20 20 20 21 22 22 23 23 23 23 23 23 23 23 23 23 24 24 24 23 23 23 22
24 24 24 25 26 26 27 27 26 27 27 27 27 26 23 22 21 20 20 21 22 22 22 23 23 24 24 24 24 24 24 25 25 25 25 25 24 24
22 22 22 21 21 22 25 27 27 27 27 27 28 28 26 25 23 22 21 21 21 21 22 22 23 23 24 24 24 24 24 24 24 24 24 24 24 24
22 21 21 19 19 19 21 24 25 26 27 28 29 29 28 28 26 25 24 23 22 22 22 22 22 23 23 23 23 24 24 24 24 24 24 24 24 25
22 21 21 20 19 19 19 19 22 24 25 28 30 30 30 30 29 28 28 27 25 24 23 23 23 23 23 24 24 24 25 25 25 25 25 25 25 25
22 22 22 21 20 19 19 19 20 21 23 26 28 30 31 31 32 31 31 30 28 26 26 25 25 25 25 25 26 26 26 26 26 26 27 26 26 26
22 22 22 21 21 20 20 20 20 20 21 23 27 30 32 32 33 34 34 33 31 30 29 29 27 26 27 27 27 27 28 28 28 28 28 28 28 28
22 22 23 22 22 21 21 21 20 21 21 21 21 25 30 32 33 34 35 35 35 34 33 32 30 30 30 29 29 29 29 29 29 29 30 30 30 30
22 22 22 23 23 22 22 21 21 21 22 22 22 23 26 28 30 33 35 36 36 37 36 35 34 34 33 32 31 31 31 31 31 31 31 32 32 32
22 22 22 23 23 23 22 22 22 22 22 23 24 24 24 26 28 30 32 34 36 38 38 38 37 37 37 35 34 34 34 34 34 34 34 34 34 34
21 22 22 22 22 23 23 23 22 22 22 23 24 24 24 25 27 28 30 32 35 36 37 38 39 40 39 38 37 37 37 36 36 36 36 36 36 36
21 21 22 21 22 22 22 22 22 22 23 23 24 24 25 26 27 28 29 30 32 34 36 37 38 39 39 39 39 38 38 38 38 38 38 38 38 38
22 22 22 22 22 22 22 22 22 22 22 23 24 24 25 26 27 28 29 30 30 31 33 34 36 38 38 38 39 40 39 39 39 39 39 39 39 39
22 22 22 22 21 22 22 22 22 22 22 23 24 24 25 25 26 27 28 28 29 31 32 33 34 35 36 37 37 38 39 39 40 40 40 40 40 40
20 21 21 22 22 21 21 22 22 22 23 23 24 24 25 26 26 27 28 29 30 30 31 33 33 34 35 36 36 37 38 39 40 40 41 41 41 41
17 18 19 20 20 20 21 21 22 22 22 22 22 23 24 25 26 27 27 28 29 30 31 31 32 33 35 36 37 38 39 40 40 41 42 42 42 42
13 14 15 17 18 19 19 20 20 21 21 22 22 22 23 24 25 26 26 27 29 30 31 32 32 33 34 35 36 37 39 40 40 41 41 41 42 43
8 10 11 13 14 15 16 17 18 19 19 20 20 21 22 22 23 24 26 27 28 29 30 31 32 33 34 36 36 37 37 38 39 40 41 41 42 43
4 5 6 8 9 10 12 13 14 15 17 18 18 19 20 21 22 24 25 26 27 28 30 31 32 33 34 36 37 39 39 40 40 41 42 42 42 42
5 4 3 3 3 5 6 8 9 11 13 14 15 17 18 20 21 23 24 26 27 29 30 32 33 34 35 35 36 38 39 40 40 41 41 42 43 43
9 8 7 7 5 4 4 5 7 8 9 11 12 14 16 18 20 21 23 25 26 28 30 31 33 34 35 36 37 38 39 40 41 41 41 42 42 43
12 11 10 9 9 8 7 7 8 8 9 10 11 13 15 16 18 20 21 23 25 26 28 30 32 33 34 35 36 37 38 39 40 41 42 42 42 42
15 14 13 13 12 11 11 10 10 10 11 11 12 13 14 16 17 19 21 22 24 26 27 28 30 31 32 33 34 35 36 37 38 39 40 41 41 42
Wind_Direction
274 273 271 268 263 257 247 244 243 242 241 240 237 237 237 236 234 233 233 233 233 234 236 236 236 237 238 238 237 236 236 236 237 238 239 240 242 243
275 274 272 269 263 255 245 242 243 242 239 239 238 236 234 236 235 233 233 234 233 235 236 236 237 237 238 239 240 239 239 239 240 241 242 244 245 246
274 273 271 272 264 253 245 243 243 240 238 239 238 235 234 235 235 235 234 235 235 236 236 236 237 237 238 239 239 240 240 240 241 242 244 246 247 248
273 272 268 268 268 263 254 246 244 241 239 237 237 235 235 235 235 237 237 237 237 238 238 238 238 239 239 240 240 241 241 242 243 244 245 247 248 249
271 270 266 265 264 262 259 251 245 242 241 238 238 236 236 234 235 237 239 239 239 240 240 240 241 242 242 243 244 244 244 245 246 247 248 249 250 251
269 267 266 264 262 261 260 256 252 248 247 241 238 237 236 235 236 238 238 240 240 241 242 243 243 244 245 246 247 248 248 249 249 250 251 251 251 252
267 266 265 263 261 259 257 258 256 253 252 247 242 240 236 235 238 238 239 240 241 242 244 245 246 247 248 248 249 251 252 252 252 253 253 253 253 253
266 265 263 262 261 260 258 257 255 254 253 254 250 243 238 239 239 238 240 242 243 243 245 248 248 249 249 250 251 251 253 253 254 254 254 255 255 256
266 264 263 261 261 260 258 257 255 254 253 253 254 252 247 244 242 241 243 244 245 246 247 249 250 250 250 250 252 252 253 254 255 256 256 257 257 258
266 264 263 261 259 259 258 258 257 255 253 252 252 252 252 248 245 245 245 245 245 248 249 250 251 251 251 252 254 254 255 256 256 257 257 258 258 259
266 264 262 261 259 258 257 257 257 256 255 255 254 253 252 249 247 248 249 247 246 249 251 251 252 253 254 254 254 255 256 257 258 258 258 258 259 260
266 265 262 260 258 257 257 257 257 256 257 257 257 255 254 253 251 250 251 252 251 251 253 254 254 255 255 256 256 257 257 258 258 259 258 259 260 261
265 264 262 261 258 256 257 258 258 257 257 257 257 257 256 254 254 254 254 253 253 254 255 256 256 256 256 257 258 258 258 258 259 259 260 261 261 262
263 262 261 260 259 257 257 258 259 260 260 259 259 259 258 257 256 257 257 257 256 256 255 256 257 258 258 258 259 259 260 260 260 261 262 262 263 263
263 261 260 258 257 257 258 259 260 261 261 262 261 261 260 260 260 259 259 259 259 259 258 258 259 261 262 261 261 261 262 262 263 263 264 264 265 264
263 260 258 257 258 258 258 259 260 261 262 263 264 264 264 263 263 263 263 262 262 262 261 262 263 263 263 263 264 264 264 265 265 265 265 265 266 266
264 261 258 257 258 259 259 260 261 263 265 265 266 267 267 266 266 266 265 265 265 265 265 266 266 266 265 264 265 266 266 266 266 266 267 268 268 267
270 264 261 260 262 261 261 263 264 265 266 266 268 269 269 269 268 267 267 267 267 267 267 268 268 268 268 267 266 266 267 267 266 266 267 268 268 268
308 288 275 270 267 264 265 268 269 269 268 270 271 272 273 273 272 272 272 272 271 271 271 270 270 270 269 269 269 268 268 268 267 267 267 268 268 268
35 24 5 333 303 287 281 281 281 279 276 276 278 280 280 279 279 278 277 277 277 276 275 274 274 273 273 271 270 270 269 270 269 269 269 269 268 268
47 45 41 35 26 8 343 322 312 304 296 292 291 292 293 290 288 287 285 284 282 281 280 279 279 278 278 276 275 273 272 271 271 271 270 270 269 268
49 47 45 42 37 29 17 3 350 339 330 320 314 310 307 304 301 298 295 293 290 288 287 285 284 282 280 279 278 276 275 274 273 272 271 271 271 270
51 49 46 43 39 33 25 17 9 3 356 348 340 332 326 321 316 311 306 303 299 296 293 291 289 287 285 282 281 279 277 276 274 273 272 272 271 271
Height
5803 5803 5803 5803 5803 5805 5807 5809 5811 5813 5815 5817 5820 5822 5824 5826 5828 5830 5832 5834 5836 5839 5841 5843 5845 5848 5850 5852 5854 5856 5858 5861 5863 5865 5866 5868 5869 5871
5798 5797 5797 5796 5796 5797 5799 5802 5805 5807 5809 5811 5814 5817 5820 5822 5824 5826 5828 5830 5832 5834 5836 5838 5841 5843 5845 5847 5849 5851 5853 5855 5857 5859 5861 5863 5864 5865
5792 5792 5792 5791 5791 5791 5793 5795 5798 5800 5803 5805 5808 5811 5814 5817 5819 5821 5824 5826 5828 5829 5831 5833 5836 5838 5840 5842 5844 5846 5848 5850 5852 5854 5855 5857 5858 5860
5786 5786 5787 5787 5787 5787 5788 5789 5791 5794 5796 5799 5801 5805 5808 5811 5814 5816 5819 5821 5823 5825 5827 5829 5831 5833 5835 5837 5838 5840 5842 5844 5846 5848 5849 5851 5852 5854
5781 5781 5781 5782 5782 5782 5783 5784 5785 5787 5789 5792 5794 5798 5801 5804 5807 5810 5813 5815 5817 5820 5822 5824 5826 5827 5829 5831 5833 5835 5837 5838 5840 5841 5843 5844 5846 5847
5775 5775 5776 5776 5777 5778 5778 5779 5780 5781 5783 5785 5788 5791 5794 5797 5800 5803 5806 5809 5811 5814 5816 5818 5820 5822 5824 5825 5827 5829 5830 5832 5833 5835 5836 5838 5839 5841
5769 5769 5770 5771 5771 5772 5773 5774 5775 5776 5778 5779 5781 5783 5786 5789 5793 5795 5799 5801 5805 5807 5809 5811 5814 5816 5817 5819 5821 5822 5824 5825 5827 5828 5830 5831 5832 5834
5763 5764 5764 5765 5766 5767 5768 5769 5770 5771 5772 5773 5775 5776 5779 5782 5784 5787 5791 5794 5797 5800 5802 5804 5807 5809 5810 5812 5814 5815 5817 5818 5820 5821 5822 5824 5825 5826
5757 5757 5758 5759 5760 5761 5762 5763 5765 5766 5767 5768 5769 5771 5772 5775 5777 5780 5782 5785 5788 5790 5793 5796 5798 5800 5801 5804 5806 5808 5809 5810 5812 5813 5814 5815 5816 5817
5751 5751 5752 5753 5754 5755 5756 5757 5759 5760 5761 5762 5764 5765 5766 5768 5770 5772 5774 5777 5780 5781 5784 5787 5789 5791 5793 5795 5797 5799 5800 5801 5803 5804 5805 5806 5807 5808
5745 5745 5746 5746 5748 5749 5750 5751 5752 5754 5755 5756 5757 5759 5760 5761 5763 5765 5767 5769 5771 5773 5774 5777 5779 5780 5783 5785 5787 5789 5790 5791 5793 5794 5795 5796 5797 5798
5738 5739 5739 5740 5741 5742 5744 5745 5746 5748 5749 5750 5751 5752 5753 5755 5756 5758 5759 5761 5762 5764 5765 5768 5769 5770 5773 5775 5776 5778 5780 5781 5782 5784 5785 5786 5787 5788
5732 5732 5733 5734 5735 5736 5738 5739 5740 5741 5742 5743 5744 5745 5747 5748 5749 5750 5751 5752 5754 5755 5757 5758 5759 5761 5762 5764 5765 5767 5768 5770 5771 5772 5774 5775 5776 5776
5725 5726 5726 5727 5729 5730 5731 5732 5734 5735 5736 5737 5738 5739 5740 5741 5742 5743 5744 5744 5746 5747 5748 5749 5750 5751 5752 5754 5755 5755 5757 5758 5760 5761 5762 5763 5764 5764
5719 5719 5720 5721 5722 5724 5725 5726 5727 5728 5729 5730 5731 5732 5733 5734 5735 5735 5736 5737 5738 5738 5739 5740 5741 5741 5742 5743 5744 5745 5745 5746 5747 5749 5749 5750 5751 5752
5713 5714 5715 5716 5717 5718 5719 5720 5721 5722 5723 5724 5725 5725 5726 5727 5727 5728 5728 5729 5730 5730 5730 5731 5731 5732 5732 5733 5733 5734 5734 5735 5735 5736 5737 5738 5738 5739
5708 5709 5709 5711 5712 5712 5714 5715 5716 5716 5717 5718 5718 5719 5719 5720 5720 5720 5721 5721 5721 5722 5722 5722 5722 5722 5722 5723 5723 5723 5723 5723 5723 5724 5724 5725 5725 5725
5705 5705 5705 5706 5707 5708 5709 5710 5710 5711 5712 5712 5713 5713 5713 5713 5713 5713 5713 5713 5713 5713 5713 5713 5713 5712 5712 5712 5712 5712 5711 5711 5711 5711 5711 5712 5712 5712
5703 5703 5703 5703 5704 5704 5705 5706 5706 5706 5707 5707 5707 5707 5707 5707 5707 5706 5706 5705 5705 5704 5704 5703 5703 5702 5702 5701 5700 5700 5699 5699 5699 5699 5699 5699 5699 5699
5704 5703 5703 5702 5702 5703 5703 5703 5703 5703 5703 5702 5702 5702 5701 5700 5700 5699 5698 5697 5696 5695 5694 5693 5692 5691 5690 5690 5689 5687 5686 5686 5686 5686 5686 5685 5685 5685
5706 5705 5704 5703 5703 5702 5702 5702 5701 5700 5699 5699 5698 5697 5696 5695 5693 5692 5691 5689 5688 5686 5684 5683 5681 5680 5678 5677 5676 5675 5674 5673 5672 5672 5672 5672 5672 5671
5708 5707 5706 5705 5704 5703 5702 5701 5700 5699 5697 5696 5695 5693 5692 5690 5688 5686 5684 5681 5679 5677 5675 5672 5670 5668 5666 5665 5663 5662 5661 5659 5658 5658 5658 5657 5657 5657
5712 5710 5708 5707 5706 5704 5703 5701 5700 5698 5696 5694 5692 5690 5688 5686 5683 5680 5677 5674 5672 5669 5666 5663 5660 5657 5655 5653 5651 5649 5648 5647 5646 5645 5644 5643 5643 5642